Location: Albany
(35.0000°S, 118.0000°E)
Time: 11:51:36
(UTC-05:00)

Transit 2A - Visible Passes

Search period start: 08 February 2016 00:00
Search period end: 18 February 2016 00:00
Orbit: 599 x 961 km, 66.7° (Epoch: 07 February)

Date Brightness Start Highest point End Pass type
(mag) Time Alt. Az. Time Alt. Az. Time Alt. Az.
08 Feb 7.2 06:50:41 10° NNE 06:56:02 30° ENE 07:01:25 10° SE visible
08 Feb 7.5 08:33:03 10° NW 08:39:05 44° WSW 08:45:06 10° SSE visible
08 Feb 9.3 15:43:30 10° SSE 15:45:26 12° SE 15:47:20 10° ESE visible
09 Feb 7.0 07:58:47 10° NW 08:05:05 61° WSW 08:11:21 10° SSE visible
09 Feb 9.4 09:47:43 10° WSW 09:49:33 11° SW 09:51:23 10° SSW visible
10 Feb 6.5 07:24:45 10° NNW 07:31:08 86° WSW 07:37:30 10° SSE visible
10 Feb 9.2 09:11:33 10° W 09:15:14 16° SW 09:18:53 10° S visible
11 Feb 6.4 06:50:56 10° NNW 06:57:14 68° ENE 07:03:31 10° SSE visible
11 Feb 8.9 08:36:16 10° W 08:41:00 21° SW 08:45:40 10° S visible
11 Feb 8.4 15:43:05 10° S 15:47:33 26° SE 15:51:37 10° ENE visible
12 Feb 8.4 08:01:23 10° WNW 08:06:51 29° SW 08:12:13 10° S visible
12 Feb 8.9 15:09:43 10° S 15:13:21 18° SE 15:16:45 10° E visible
13 Feb 7.9 07:26:48 10° NW 07:32:45 40° WSW 07:38:37 10° SSE visible
13 Feb 9.2 14:36:46 10° SSE 14:39:06 13° SE 14:41:20 10° ESE visible
14 Feb 7.3 06:52:27 10° NW 06:58:43 56° WSW 07:04:53 10° SSE visible
14 Feb 9.7 08:42:45 10° SW 08:43:15 10° SW 08:43:45 10° SW visible
14 Feb 6.4 15:43:59 10° SSW 15:49:14 63° ESE 15:53:56 10° NE visible
15 Feb 6.7 06:18:21 10° NNW 06:24:44 79° WSW 06:31:03 10° SSE visible
15 Feb 9.5 08:05:39 10° WSW 08:08:55 14° SW 08:12:09 10° SSW visible
15 Feb 7.2 15:10:13 10° SSW 15:15:13 41° ESE 15:19:44 10° NE visible
16 Feb 9.2 07:30:12 10° W 07:34:40 20° SW 07:39:04 10° S visible
16 Feb 8.0 14:36:36 10° S 14:41:08 28° SE 14:45:17 10° ENE visible
17 Feb 8.8 06:55:12 10° WNW 07:00:29 27° SW 07:05:40 10° S visible
17 Feb 8.5 14:03:10 10° S 14:06:58 20° SE 14:10:30 10° E visible
17 Feb 6.0 15:45:34 10° SW 15:50:30 46° WNW 15:54:57 10° N visible
